Weather History for Burlington, WA

Change the Weather History Date:

Tuesday, May 29, 2012

  Actual Average Record
Temperature  
Mean Temperature 53 °F -  
Max Temperature 60 °F 66 °F 88 °F (1983)
Min Temperature 46 °F 46 °F 35 °F (1966)
Degree Days  
Heating Degree Days 12    
Growing Degree Days 3 (Base 50)    
Moisture  
Dew Point 45 °F    
Average Humidity 78    
Maximum Humidity 100    
Minimum Humidity 52    
Precipitation  
Precipitation 0.01 in - - ()
Sea Level Pressure  
Sea Level Pressure 30.17 in    
Wind  
Wind Speed 4 mph (SSW)    
Max Wind Speed 10 mph    
Max Gust Speed -    
Visibility 9 miles    
Events      
Averages and records for this station are not official NWS values.
T = Trace of Precipitation, MM = Missing Value Source: NWS Daily Summary

Daily Weather History Graph

Daily Weather History Graph

Search for Another Location

Airport:

Trip Planner

Search our weather history database for the weather conditions in past years. The results will help you decide how hot, cold, wet, or windy it might be!

Date:

Astronomy

May. 29, 2012 Rise Set
Actual Time 5:14 AM PDT 9:00 PM PDT
Civil Twilight 4:34 AM PDT 9:41 PM PDT
Nautical Twilight 3:39 AM PDT 10:36 PM PDT
Astronomical Twilight 2:19 AM PDT 11:57 PM PDT
Moon 2:09 PM PDT (5/29) 1:41 AM PDT (5/29)
Length of Visible Light 17h 07m
Length of Day
15h 46m
First Quarter, 60% of the Moon is Illuminated
May 29
First Quarter
Jun 4
Full
Jun 11
Last Quarter
Jun 19
New
Jun 26
First Quarter

Hourly Weather History & Observations

Time (PDT) Temp. Windchill Dew Point Humidity Pressure Visibility Wind Dir Wind Speed Gust Speed Precip Events Conditions
12:15 AM 48.2 °F - 46.4 °F 93% 30.14 in 9.0 mi SSW 4.6 mph - 0.00 in   Overcast
12:35 AM 48.2 °F - 46.4 °F 93% 30.15 in 9.0 mi Calm Calm - 0.00 in   Overcast
12:55 AM 48.2 °F - 46.4 °F 93% 30.15 in 9.0 mi South 3.5 mph - 0.00 in   Overcast
1:15 AM 48.2 °F - 46.4 °F 93% 30.14 in 9.0 mi SSW 3.5 mph - 0.00 in   Overcast
1:35 AM 48.2 °F - 46.4 °F 93% 30.14 in 9.0 mi Calm Calm - 0.00 in   Overcast
1:55 AM 48.2 °F - 46.4 °F 93% 30.14 in 10.0 mi Calm Calm - 0.00 in   Overcast
2:15 AM 48.2 °F - 46.4 °F 93% 30.14 in 10.0 mi SSE 5.8 mph - 0.00 in   Overcast
2:35 AM 48.2 °F - 46.4 °F 93% 30.15 in 9.0 mi South 4.6 mph - 0.00 in   Overcast
2:55 AM 48.2 °F - 46.4 °F 93% 30.15 in 8.0 mi SSW 3.5 mph - 0.00 in   Overcast
3:15 AM 48.2 °F - 46.4 °F 93% 30.15 in 9.0 mi South 3.5 mph - 0.00 in   Overcast
3:35 AM 46.4 °F 45.2 °F 46.4 °F 100% 30.15 in 8.0 mi South 3.5 mph - 0.01 in   Overcast
3:55 AM 46.4 °F 44.3 °F 46.4 °F 100% 30.15 in 10.0 mi South 4.6 mph - 0.01 in   Overcast
4:15 AM 46.4 °F - 46.4 °F 100% 30.15 in 10.0 mi Calm Calm - 0.00 in   Overcast
4:35 AM 46.4 °F - 46.4 °F 100% 30.15 in 10.0 mi Calm Calm - 0.00 in   Overcast
4:55 AM 46.4 °F 45.2 °F 46.4 °F 100% 30.15 in 10.0 mi SSE 3.5 mph - 0.00 in   Overcast
5:15 AM 46.4 °F 44.3 °F 46.4 °F 100% 30.15 in 10.0 mi SSE 4.6 mph - 0.00 in   Overcast
5:35 AM 48.2 °F - 46.4 °F 93% 30.15 in 8.0 mi SSE 5.8 mph - 0.00 in   Overcast
5:55 AM 48.2 °F - 46.4 °F 93% 30.15 in 8.0 mi SE 5.8 mph - 0.00 in   Overcast
6:15 AM 48.2 °F - 46.4 °F 93% 30.16 in 8.0 mi SSE 4.6 mph - 0.00 in   Overcast
6:35 AM 48.2 °F - 46.4 °F 93% 30.16 in 9.0 mi SSE 4.6 mph - 0.00 in   Overcast
6:55 AM 48.2 °F - 48.2 °F 100% 30.17 in 8.0 mi SSE 4.6 mph - 0.00 in   Overcast
7:15 AM 50.0 °F - 48.2 °F 94% 30.17 in 8.0 mi SSE 4.6 mph - 0.00 in   Overcast
7:35 AM 50.0 °F - 46.4 °F 87% 30.17 in 8.0 mi South 3.5 mph - 0.00 in   Overcast
7:55 AM 50.0 °F - 48.2 °F 94% 30.17 in 8.0 mi South 4.6 mph - 0.00 in   Overcast
8:15 AM 51.8 °F - 46.4 °F 82% 30.17 in 9.0 mi South 4.6 mph - 0.00 in   Overcast
8:35 AM 51.8 °F - 46.4 °F 82% 30.18 in 8.0 mi South 5.8 mph - 0.00 in   Overcast
8:55 AM 51.8 °F - 46.4 °F 82% 30.18 in 9.0 mi SSW 9.2 mph - 0.00 in   Overcast
9:15 AM 51.8 °F - 46.4 °F 82% 30.19 in 8.0 mi South 5.8 mph - 0.00 in   Overcast
9:35 AM 51.8 °F - 46.4 °F 82% 30.18 in 9.0 mi SSW 8.1 mph - 0.00 in   Overcast
9:55 AM 53.6 °F - 46.4 °F 77% 30.18 in 9.0 mi South 6.9 mph - 0.00 in   Mostly Cloudy
10:15 AM 53.6 °F - 48.2 °F 82% 30.18 in 9.0 mi SSW 5.8 mph - 0.00 in   Mostly Cloudy
10:35 AM 53.6 °F - 46.4 °F 77% 30.18 in 9.0 mi SSW 9.2 mph - 0.00 in   Mostly Cloudy
10:55 AM 55.4 °F - 46.4 °F 72% 30.18 in 8.0 mi SSW 5.8 mph - 0.00 in   Scattered Clouds
11:15 AM 55.4 °F - 42.8 °F 63% 30.18 in 8.0 mi South 8.1 mph - 0.00 in   Scattered Clouds
11:35 AM 55.4 °F - 42.8 °F 63% 30.18 in 9.0 mi SW 6.9 mph - 0.00 in   Scattered Clouds
12:15 PM 55.4 °F - 44.6 °F 67% 30.19 in 8.0 mi SW 6.9 mph - 0.00 in   Scattered Clouds
12:35 PM 55.4 °F - 42.8 °F 63% 30.19 in 8.0 mi SSW 6.9 mph - 0.00 in   Scattered Clouds
12:55 PM 55.4 °F - 41.0 °F 58% 30.20 in 9.0 mi WSW 6.9 mph - 0.00 in   Partly Cloudy
1:15 PM 55.4 °F - 41.0 °F 58% 30.20 in 9.0 mi West 8.1 mph - 0.00 in   Partly Cloudy
1:35 PM 55.4 °F - 42.8 °F 63% 30.20 in 8.0 mi WSW 6.9 mph - 0.00 in   Partly Cloudy
1:55 PM 55.4 °F - 42.8 °F 63% 30.20 in 8.0 mi West 5.8 mph - 0.00 in   Partly Cloudy
2:15 PM 57.2 °F - 42.8 °F 59% 30.19 in 9.0 mi SSW 4.6 mph - 0.00 in   Partly Cloudy
2:35 PM 57.2 °F - 42.8 °F 59% 30.19 in 7.0 mi WSW 5.8 mph - 0.00 in   Clear
2:55 PM 57.2 °F - 44.6 °F 63% 30.19 in 7.0 mi SSW 10.4 mph - 0.00 in   Partly Cloudy
3:15 PM 57.2 °F - 42.8 °F 59% 30.19 in 8.0 mi WNW 5.8 mph - 0.00 in   Partly Cloudy
3:35 PM 57.2 °F - 42.8 °F 59% 30.19 in 9.0 mi WSW 4.6 mph - 0.00 in   Clear
3:55 PM 59.0 °F - 42.8 °F 55% 30.19 in 8.0 mi NW 5.8 mph - 0.00 in   Clear
4:15 PM 59.0 °F - 42.8 °F 55% 30.20 in 8.0 mi SSW 5.8 mph - 0.00 in   Clear
4:35 PM 59.0 °F - 42.8 °F 55% 30.19 in 8.0 mi Calm Calm - 0.00 in   Clear
4:55 PM 59.0 °F - 42.8 °F 55% 30.19 in 9.0 mi Calm Calm - 0.00 in   Clear
5:15 PM 60.8 °F - 42.8 °F 52% 30.18 in 8.0 mi WSW 5.8 mph - 0.00 in   Clear
5:35 PM 59.0 °F - 42.8 °F 55% 30.18 in 8.0 mi SW 4.6 mph - 0.00 in   Clear
5:55 PM 59.0 °F - 42.8 °F 55% 30.18 in 8.0 mi SSW 3.5 mph - 0.00 in   Clear
6:15 PM 59.0 °F - 42.8 °F 55% 30.17 in 8.0 mi WNW 3.5 mph - 0.00 in   Clear
6:35 PM 59.0 °F - 42.8 °F 55% 30.17 in 7.0 mi SW 5.8 mph - 0.00 in   Clear
6:55 PM 57.2 °F - 41.0 °F 55% 30.17 in 8.0 mi WSW 5.8 mph - 0.00 in   Clear
7:15 PM 57.2 °F - 42.8 °F 59% 30.17 in 6.0 mi SSW 4.6 mph - 0.00 in   Clear
7:35 PM 55.4 °F - 42.8 °F 63% 30.18 in 9.0 mi Calm Calm - 0.00 in   Clear
7:55 PM 55.4 °F - 42.8 °F 63% 30.17 in 9.0 mi Calm Calm - 0.00 in   Mostly Cloudy
8:15 PM 53.6 °F - 44.6 °F 72% 30.17 in 10.0 mi West 3.5 mph - 0.00 in   Overcast
8:35 PM 53.6 °F - 44.6 °F 72% 30.17 in 8.0 mi West 3.5 mph - 0.00 in   Overcast
8:55 PM 53.6 °F - 46.4 °F 77% 30.17 in 8.0 mi Calm Calm - 0.00 in   Overcast
9:15 PM 51.8 °F - 48.2 °F 88% 30.17 in 8.0 mi Calm Calm - 0.00 in   Overcast
9:35 PM 51.8 °F - 46.4 °F 82% 30.17 in 10.0 mi Calm Calm - 0.00 in   Scattered Clouds
9:55 PM 51.8 °F - 44.6 °F 76% 30.16 in 10.0 mi Calm Calm - 0.00 in   Clear
10:15 PM 48.2 °F - 46.4 °F 93% 30.17 in 10.0 mi Calm Calm - 0.00 in   Clear
10:35 PM 50.0 °F - 46.4 °F 87% 30.17 in 10.0 mi Calm Calm - 0.00 in   Clear
10:55 PM 48.2 °F - 46.4 °F 93% 30.17 in 10.0 mi Calm Calm - 0.00 in   Scattered Clouds
11:15 PM 50.0 °F - 46.4 °F 87% 30.17 in 10.0 mi Calm Calm - 0.00 in   Overcast
11:35 PM 51.8 °F - 44.6 °F 76% 30.17 in 10.0 mi Calm Calm - 0.00 in   Scattered Clouds
11:55 PM 48.2 °F - 46.4 °F 93% 30.18 in 10.0 mi Calm Calm - 0.00 in   Scattered Clouds